Weather History for Fargo, ND

Change the Weather History Date:

Monday, March 18, 2013

  Actual Average Record
Temperature  
Mean Temperature 18 °F 29 °F  
Max Temperature 32 °F 37 °F 78 °F (2012)
Min Temperature 4 °F 21 °F -19 °F (1923)
Degree Days  
Heating Degree Days 47 36  
Month to date heating degree days 859 729  
Since 1 July heating degree days 7450 7407  
Cooling Degree Days 0 0  
Month to date cooling degree days 0 0  
Year to date cooling degree days 0 0  
Moisture  
Dew Point 14 °F    
Average Humidity 76    
Maximum Humidity 85    
Minimum Humidity 66    
Precipitation  
Precipitation 0.14 in 0.05 in 0.64 in (1968)
Month to date precipitation 1.38 0.74  
Year to date precipitation 3.57 2.05  
Snow  
Snow 1.40 in 0.30 in 3.70 in (1932)
Month to date snowfall 14.6 6.3  
Since 1 July snowfall 51.7 44.3  
Snow Depth 20.00 in    
Sea Level Pressure  
Sea Level Pressure 29.64 in    
Wind  
Wind Speed 24 mph (WNW)    
Max Wind Speed 36 mph    
Max Gust Speed 45 mph    
Visibility 3 miles    
Events Fog , Rain , Snow    
T = Trace of Precipitation, MM = Missing Value Source: NWS Daily Summary

Daily Weather History Graph

Daily Weather History Graph

Search for Another Location

Airport:

Trip Planner

Search our weather history database for the weather conditions in past years. The results will help you decide how hot, cold, wet, or windy it might be!

Date:

Astronomy

Mar. 18, 2013 Rise Set
Actual Time 7:33 AM CDT 7:37 PM CDT
Civil Twilight 7:03 AM CDT 8:07 PM CDT
Nautical Twilight 6:27 AM CDT 8:43 PM CDT
Astronomical Twilight 5:51 AM CDT 9:20 PM CDT
Moon 11:12 AM CDT (3/18) 1:59 AM CDT (3/18)
Length of Visible Light 13h 04m
Length of Day
12h 03m
Waxing Crescent, 41% of the Moon is Illuminated
Mar 18
Waxing Crescent
Mar 19
First Quarter
Mar 27
Full
Apr 2
Last Quarter
Apr 10
New

Hourly Weather History & Observations

Time (CDT) Temp. Windchill Dew Point Humidity Pressure Visibility Wind Dir Wind Speed Gust Speed Precip Events Conditions
12:53 AM 26.1 °F 11.0 °F 21.0 °F 81% 29.60 in 1.8 mi SSE 24.2 mph 35.7 mph 0.01 in Snow Light Snow
1:00 AM 26.6 °F 11.7 °F 21.2 °F 80% 29.55 in 2.0 mi SSE 24.2 mph 34.5 mph 0.00 in Snow Light Snow
1:10 AM 26.6 °F 12.4 °F 21.2 °F 80% 29.54 in 1.5 mi SE 21.9 mph 35.7 mph 0.01 in Snow Light Snow
1:22 AM 26.6 °F 11.4 °F 21.2 °F 80% 29.53 in 0.8 mi SE 25.3 mph 35.7 mph 0.01 in Snow Light Snow
1:36 AM 26.6 °F 11.7 °F 21.2 °F 80% 29.52 in 1.0 mi SE 24.2 mph 29.9 mph 0.02 in Snow Light Snow
1:45 AM 26.6 °F 12.0 °F 21.2 °F 80% 29.52 in 1.2 mi SE 23.0 mph 34.5 mph 0.02 in Snow Light Snow
1:53 AM 27.0 °F 11.9 °F 23.0 °F 85% 29.57 in 0.8 mi SE 25.3 mph 36.8 mph 0.03 in Snow Light Snow
2:03 AM 26.6 °F 12.7 °F 23.0 °F 86% 29.51 in 1.2 mi SSE 20.7 mph 31.1 mph 0.00 in Snow Light Snow
2:10 AM 26.6 °F 12.7 °F 23.0 °F 86% 29.51 in 1.5 mi SE 20.7 mph 31.1 mph 0.01 in Snow Light Snow
2:22 AM 26.6 °F 12.4 °F 23.0 °F 86% 29.50 in 1.5 mi SSE 21.9 mph 34.5 mph 0.01 in Snow Light Snow
2:29 AM 28.4 °F 14.4 °F 23.0 °F 80% 29.50 in 2.0 mi SE 23.0 mph 32.2 mph 0.01 in Snow Light Snow
2:53 AM 28.0 °F 14.6 °F 24.1 °F 85% 29.53 in 2.5 mi SE 20.7 mph 32.2 mph 0.02 in Snow Light Snow
3:00 AM 28.4 °F 16.2 °F 24.8 °F 86% 29.48 in 3.0 mi SSE 17.3 mph 33.4 mph 0.00 in Snow Light Snow
3:53 AM 30.0 °F 17.2 °F 26.1 °F 85% 29.49 in 3.0 mi SSE 20.7 mph 29.9 mph 0.01 in Snow Light Snow
4:53 AM 30.9 °F 24.3 °F 27.0 °F 85% 29.47 in 4.0 mi South 6.9 mph - 0.00 in Rain Light Freezing Rain
5:42 AM 30.2 °F 18.1 °F 28.4 °F 93% 29.42 in 2.0 mi WSW 18.4 mph 24.2 mph 0.01 in Rain Light Freezing Rain
5:49 AM 28.4 °F 16.6 °F 24.8 °F 86% 29.42 in 3.0 mi West 16.1 mph 24.2 mph 0.01 in Snow Light Snow
5:53 AM 28.0 °F 14.6 °F 24.1 °F 85% 29.46 in 4.0 mi West 20.7 mph - 0.01 in Snow Light Snow
6:01 AM 26.6 °F 11.7 °F 23.0 °F 86% 29.42 in 5.0 mi West 24.2 mph 29.9 mph 0.00 in Snow Light Snow
6:08 AM 26.6 °F 12.4 °F 21.2 °F 80% 29.43 in 3.0 mi West 21.9 mph 29.9 mph 0.00 in Snow Light Snow
6:23 AM 24.8 °F 9.3 °F 19.4 °F 80% 29.43 in 2.0 mi WNW 24.2 mph 33.4 mph 0.00 in Snow Light Snow
6:53 AM 21.9 °F 3.7 °F 18.0 °F 85% 29.49 in 1.2 mi WNW 31.1 mph 35.7 mph 0.00 in Snow Light Snow
7:01 AM 21.2 °F 3.9 °F 17.6 °F 86% 29.45 in 0.5 mi WNW 26.5 mph 34.5 mph 0.00 in Snow Snow
7:08 AM 21.2 °F 3.9 °F 17.6 °F 86% 29.45 in 1.0 mi WNW 26.5 mph 34.5 mph 0.00 in Snow Light Snow
7:48 AM 19.4 °F 0.5 °F 14.0 °F 80% 29.47 in 0.5 mi WNW 29.9 mph 36.8 mph 0.01 in   Overcast
7:53 AM 19.0 °F 0.6 °F 14.0 °F 81% 29.52 in 0.8 mi WNW 27.6 mph 36.8 mph 0.01 in   Overcast
8:00 AM 19.4 °F 1.4 °F 14.0 °F 80% 29.48 in 1.0 mi WNW 26.5 mph - 0.00 in   Overcast
8:19 AM 17.6 °F -1.6 °F 12.2 °F 79% 29.49 in 0.8 mi WNW 28.8 mph 36.8 mph 0.00 in Snow Light Snow
8:53 AM 17.1 °F -1.7 °F 12.0 °F 81% 29.56 in 0.2 mi WNW 26.5 mph 36.8 mph 0.00 in Snow Heavy Snow
9:05 AM 15.8 °F -4.1 °F 12.2 °F 86% 29.51 in 0.2 mi WNW 28.8 mph 41.4 mph 0.00 in Fog , Snow Snow
9:26 AM 15.8 °F -3.7 °F 10.4 °F 79% 29.54 in 0.2 mi WNW 27.6 mph 36.8 mph 0.00 in Fog , Snow Snow
9:33 AM 15.8 °F -4.1 °F 10.4 °F 79% 29.54 in 0.2 mi WNW 28.8 mph 38.0 mph 0.00 in Snow Heavy Snow
9:53 AM 15.1 °F -5.9 °F 10.0 °F 80% 29.61 in 0.2 mi WNW 32.2 mph 44.9 mph 0.00 in Snow Heavy Snow
10:06 AM 14.0 °F -6.5 °F 8.6 °F 79% 29.57 in 0.2 mi WNW 28.8 mph 40.3 mph 0.01 in Snow Heavy Snow
10:53 AM 14.0 °F -6.8 °F 9.0 °F 80% 29.65 in 0.2 mi WNW 29.9 mph 40.3 mph 0.01 in Snow Heavy Snow
11:53 AM 14.0 °F -5.8 °F 9.0 °F 80% 29.69 in 0.5 mi WNW 26.5 mph 38.0 mph 0.00 in Snow Snow
12:53 PM 15.1 °F -5.7 °F 9.0 °F 77% 29.72 in 1.0 mi WNW 31.1 mph 38.0 mph 0.01 in Snow Light Snow
1:03 PM 15.8 °F -4.1 °F 8.6 °F 73% 29.68 in 0.8 mi NW 28.8 mph 40.3 mph 0.00 in Snow Light Snow
1:25 PM 17.6 °F -1.3 °F 10.4 °F 73% 29.68 in 1.0 mi NW 27.6 mph 36.8 mph 0.00 in Snow Light Snow
1:53 PM 17.1 °F -2.0 °F 9.0 °F 71% 29.75 in 2.0 mi NW 27.6 mph 40.3 mph 0.00 in Snow Light Snow
2:03 PM 17.6 °F -2.5 °F 8.6 °F 68% 29.71 in 1.5 mi NW 32.2 mph 39.1 mph 0.00 in Snow Light Snow
2:14 PM 17.6 °F -1.3 °F 10.4 °F 73% 29.72 in 2.5 mi NW 27.6 mph 35.7 mph 0.00 in Snow Light Snow
2:24 PM 17.6 °F -1.6 °F 10.4 °F 73% 29.72 in 2.0 mi NW 28.8 mph 35.7 mph 0.00 in Snow Light Snow
2:36 PM 17.6 °F -1.6 °F 8.6 °F 68% 29.73 in 2.5 mi NW 28.8 mph 38.0 mph 0.00 in Snow Light Snow
2:50 PM 17.6 °F -0.3 °F 10.4 °F 73% 29.73 in 1.5 mi NW 24.2 mph 36.8 mph 0.00 in Snow Light Snow
2:53 PM 17.1 °F -1.7 °F 10.0 °F 74% 29.78 in 1.2 mi NW 26.5 mph 35.7 mph 0.00 in Snow Light Snow
3:37 PM 17.6 °F -2.5 °F 8.6 °F 68% 29.75 in 3.0 mi NW 32.2 mph 42.6 mph 0.00 in Snow Light Snow
3:53 PM 17.1 °F -2.7 °F 9.0 °F 71% 29.80 in 5.0 mi NW 29.9 mph 39.1 mph 0.00 in Snow Light Snow
4:43 PM 15.8 °F -4.7 °F 6.8 °F 68% 29.79 in 6.0 mi NW 31.1 mph 39.1 mph N/A Snow Light Snow
4:53 PM 16.0 °F -3.8 °F 8.1 °F 71% 29.84 in 4.0 mi NW 28.8 mph 34.5 mph 0.00 in Snow Light Snow
5:53 PM 14.0 °F -5.1 °F 6.1 °F 71% 29.88 in 9.0 mi NW 24.2 mph 34.5 mph 0.00 in Snow Light Snow
6:01 PM 14.0 °F -5.5 °F 6.8 °F 73% 29.83 in 9.0 mi NW 25.3 mph 35.7 mph 0.00 in Snow Light Snow
6:53 PM 12.9 °F -5.7 °F 3.9 °F 67% 29.91 in 9.0 mi NW 21.9 mph 32.2 mph 0.00 in Snow Light Snow
7:53 PM 10.9 °F -6.5 °F 3.0 °F 70% 29.94 in 10.0 mi NW 17.3 mph - 0.00 in   Clear
8:14 PM 10.4 °F -7.7 °F 1.4 °F 67% 29.90 in 10.0 mi WNW 18.4 mph - N/A   Mostly Cloudy
8:35 PM 10.4 °F -7.7 °F 1.4 °F 67% 29.91 in 10.0 mi NW 18.4 mph 26.5 mph N/A   Scattered Clouds
8:53 PM 10.0 °F -7.6 °F 1.9 °F 70% 29.98 in 10.0 mi WNW 17.3 mph - N/A   Clear
9:53 PM 9.0 °F -8.5 °F 1.0 °F 70% 30.00 in 10.0 mi WNW 16.1 mph - N/A   Clear
10:53 PM 8.1 °F -10.2 °F -0.0 °F 70% 30.02 in 10.0 mi NW 17.3 mph - N/A   Clear
11:53 PM 6.1 °F -10.9 °F -2.0 °F 69% 30.04 in 10.0 mi WNW 13.8 mph - N/A   Clear